Torna al catalogo

OPS 4682 DEB

AttivoPO
NORAD 26732·DEBRIS·🇺🇸 United States

Lanciato Apr 3, 1965 da Vandenberg Space Force Base

Loading…

Prossimi Passaggi (prossime 24 ore)

TLE

AggiornatoSource: Space-Track

Epoca: Sep 14, 2026, 06:56 UTC

1 26732U 65027BF  26257.28943000  .00001270  00000-0  44058-2 0  9991
2 26732  90.2647  13.2517 0058535 309.4069  77.6231 12.96046692506716

Traccia OPS 4682 DEB in tempo reale con AllMySat

Download on the App Store